Temp
16 16 16 16 16 16 16 16 16 16 16 16 16 16 16 16 16 16 16 15 15 14 14 14 14 13 13 13 13 13 13 12 12 13 13 13 13 13 13 13 13 14 14
16 16 16 16 16 16 16 16 16 15 15 15 15 15 15 15 15 15 15 15 14 14 14 14 14 13 13 13 13 13 12 12 12 12 13 13 13 13 13 13 13 13 13
16 16 16 16 15 15 15 15 15 14 15 15 15 15 14 15 15 15 15 14 14 14 14 14 14 13 13 12 13 13 12 12 12 12 12 13 12 13 13 13 13 13 13
15 16 16 16 15 15 15 15 15 15 15 15 15 15 15 15 15 15 14 14 14 14 13 14 14 14 13 12 12 12 12 12 12 12 12 12 12 12 12 13 13 13 13
15 15 15 15 15 14 14 14 14 14 15 15 15 15 15 15 15 14 14 14 14 13 14 13 13 13 13 13 12 11 11 11 11 11 11 12 12 12 12 12 13 13 13
15 15 15 14 14 14 14 14 14 14 14 14 14 15 15 14 14 14 14 14 14 13 13 12 12 12 13 13 12 12 11 11 11 11 11 12 12 12 12 12 12 12 13
15 15 14 14 14 14 14 14 14 13 14 13 14 16 16 15 14 14 14 14 14 13 13 12 12 12 12 12 12 12 12 10 10 11 11 11 12 12 12 12 12 13 13
15 14 14 14 13 13 13 13 13 14 13 13 14 15 17 17 15 14 13 13 13 13 12 12 12 12 12 12 11 12 11 11 11 10 11 11 12 12 11 12 12 12 12
14 14 14 13 13 13 13 13 12 12 14 13 12 14 16 17 16 15 13 13 13 13 13 12 12 11 11 11 11 11 11 11 11 10 10 11 11 12 11 11 11 11 12
15 14 14 14 13 12 12 12 12 12 12 13 13 12 13 13 15 16 15 13 13 13 13 13 12 12 11 11 11 11 10 10 10 9 10 10 11 11 11 11 11 11 10
14 14 14 13 13 12 11 11 11 11 11 11 12 13 12 12 12 13 15 16 14 13 12 12 12 12 11 11 10 10 10 10 10 9 9 10 11 11 10 10 10 10 10
13 13 12 12 12 12 11 11 11 10 10 10 10 11 11 13 13 12 13 14 14 14 13 12 12 12 11 10 10 10 10 9 9 9 8 9 10 10 10 10 10 10 9
11 10 12 11 10 10 11 11 11 11 10 10 10 11 11 11 11 12 12 13 14 14 13 12 12 12 11 10 10 10 10 9 9 9 8 9 9 9 10 10 9 9 9
9 9 9 9 9 9 9 9 9 9 9 9 9 10 10 10 10 10 10 11 12 13 12 12 12 10 10 9 9 9 9 8 8 8 8 8 9 9 9 9 9 8 8
8 8 8 8 8 9 9 9 9 9 9 9 9 9 9 9 9 9 9 9 10 10 12 12 11 10 9 9 9 9 8 7 8 8 8 8 8 8 8 9 8 8 8
7 7 7 7 8 8 8 8 9 9 9 9 9 9 9 9 9 8 8 7 8 8 8 11 12 9 9 9 9 9 7 7 7 7 7 7 8 8 8 8 8 8 7
6 6 6 6 7 7 7 8 8 8 8 9 9 9 8 8 8 7 7 6 6 6 7 8 9 9 8 8 8 7 7 7 6 7 7 7 7 7 7 7 7 7 7
5 5 5 5 5 5 5 6 6 6 7 7 7 8 7 8 8 8 7 7 6 6 6 7 8 6 7 8 7 7 6 6 5 6 6 6 6 7 7 6 6 6 6
5 4 4 4 4 4 4 4 4 4 4 5 5 6 7 7 7 7 7 7 6 6 6 6 7 6 6 6 5 5 5 5 6 5 6 6 6 6 7 6 6 5 5
3 3 3 3 3 3 3 3 3 3 4 4 4 4 5 6 6 7 6 6 6 6 6 5 5 5 5 5 5 4 4 4 4 4 5 5 6 6 6 5 5 4 4
2 2 2 2 2 2 3 1 2 2 3 3 3 3 3 4 3 4 5 6 6 6 6 5 5 5 5 4 4 4 4 4 4 4 4 3 4 4 5 5 4 4 3
2 1 1 1 2 2 1 0 1 2 2 3 3 2 2 2 3 3 3 4 5 5 5 5 5 5 5 4 4 4 4 3 3 3 3 2 3 4 4 4 3 1 1
1 1 1 1 1 1 1 0 0 1 2 2 2 2 2 3 3 3 3 3 4 4 4 5 5 5 4 4 4 4 4 3 4 3 2 1 1 2 2 2 1 0 -0
-0 -0 0 1 1 1 0 0 0 1 2 3 3 2 2 2 3 3 3 4 4 4 6 5 5 4 4 3 3 4 3 3 2 2 2 -0 -0 0 0 0 -0 -1 -1
-1 -0 -0 -0 0 1 0 -0 0 1 2 2 2 2 2 2 2 3 3 3 3 3 3 3 2 2 2 2 2 2 2 1 -0 0 0 0 -1 -1 -1 -1 -1 -2 -2
-1 -1 -1 -0 0 0 1 0 1 0 1 1 2 2 2 2 3 3 3 3 2 1 1 1 1 1 1 2 2 2 2 1 0 -1 0 -0 -1 -1 -2 -2 -2 -2 -3
Height
860 860 861 861 861 861 861 861 860 860 859 858 858 857 857 856 855 855 855 853 852 852 851 850 849 848 847 847 845 844 843 841 840 838 836 834 833 831 829 828 826 825 823
859 860 860 861 861 861 861 861 860 859 858 857 857 856 856 855 855 854 854 853 851 851 850 850 848 847 847 846 845 844 842 841 839 837 836 834 832 830 828 826 825 823 822
859 859 860 860 860 860 860 860 859 858 858 857 856 855 854 854 853 853 852 852 851 849 848 847 847 846 845 844 844 843 842 840 839 837 835 833 830 828 826 824 823 821 819
858 858 859 859 859 858 859 859 858 858 857 856 855 854 853 852 851 851 850 850 849 849 847 846 846 845 844 843 843 842 840 839 838 836 834 831 829 827 824 822 820 818 817
857 858 858 858 857 858 858 857 857 856 856 855 854 853 851 850 849 848 848 847 847 846 847 845 845 844 843 842 841 840 839 838 837 835 833 831 828 826 822 820 818 816 814
855 856 857 857 857 857 857 857 856 856 855 854 852 850 848 846 845 844 844 844 844 844 844 844 843 842 841 840 839 837 836 835 834 833 831 829 828 825 822 819 815 812 810
853 854 855 856 856 856 856 856 855 855 854 853 851 847 845 843 841 841 840 841 841 841 841 841 841 840 840 837 836 835 834 833 831 830 828 827 826 824 821 818 813 809 807
852 854 855 855 855 854 854 854 854 854 854 853 852 850 843 841 840 838 838 838 838 838 838 838 838 837 837 836 834 832 831 830 829 827 826 825 823 822 819 816 812 808 806
851 852 853 853 853 853 853 852 852 852 852 851 850 851 845 839 840 836 836 836 836 836 836 836 835 834 834 833 831 829 828 827 826 824 824 823 821 820 818 815 811 808 807
850 851 851 851 851 851 851 850 850 850 850 849 848 847 847 847 843 835 834 833 833 832 831 831 831 830 829 828 827 826 824 823 822 821 821 820 818 818 816 814 812 809 807
848 849 849 849 849 848 848 848 848 848 848 848 847 845 845 843 843 842 832 829 830 829 828 826 826 825 824 823 822 821 820 819 818 818 818 818 817 815 813 812 810 808 807
848 848 848 848 848 847 846 846 845 844 844 843 843 843 843 841 838 838 833 829 826 825 825 823 821 820 819 818 816 816 815 815 814 814 814 814 813 812 811 809 808 807 806
848 847 847 846 846 845 844 842 841 841 841 839 839 837 836 834 833 832 830 826 822 819 818 817 815 813 812 812 812 811 811 810 810 811 811 812 810 809 809 808 807 805 806
846 846 846 846 845 844 842 841 839 838 837 836 834 833 831 829 828 826 824 823 818 814 813 811 809 807 805 805 805 804 805 804 806 806 807 807 807 807 807 805 805 805 803
847 847 846 845 844 843 841 839 837 836 834 833 830 828 827 824 823 821 820 819 817 810 803 803 803 802 800 799 799 799 800 800 800 800 802 802 802 801 802 802 802 802 803
848 847 846 844 843 841 839 837 835 833 831 829 827 824 822 819 817 815 812 811 809 807 799 799 796 793 792 793 793 793 795 796 796 794 797 799 799 799 800 800 800 800 800
846 845 844 842 841 839 837 835 834 831 828 825 823 820 817 815 811 808 805 802 800 799 794 786 788 789 787 786 786 789 789 791 789 787 790 794 794 795 795 797 797 798 799
846 845 843 842 839 837 835 833 831 829 826 824 821 818 815 812 808 804 801 797 794 792 789 782 780 778 778 780 780 781 782 785 786 785 785 788 790 790 792 793 794 794 795
844 843 841 839 837 834 832 830 828 825 822 820 817 813 809 806 802 800 796 791 788 783 781 778 771 770 770 772 774 774 775 778 782 781 781 785 787 786 788 789 788 790 794
844 841 838 837 834 831 829 826 823 820 817 814 811 808 804 800 796 792 788 785 782 776 773 769 766 764 763 763 768 770 772 772 776 778 777 780 780 781 782 784 782 785 791
841 839 837 834 832 829 828 824 821 817 813 809 805 801 797 793 789 785 783 776 773 770 764 761 758 757 756 751 756 760 766 769 772 773 774 774 776 778 780 779 783 785 789
838 836 834 831 829 826 824 821 819 815 810 805 800 795 789 784 779 776 773 769 766 762 758 752 749 749 746 744 749 755 760 765 770 765 774 775 776 776 776 779 782 785 788
836 834 832 830 826 824 820 816 813 809 805 801 796 791 784 778 774 768 760 756 752 752 749 745 742 739 739 738 743 751 756 760 764 766 770 774 776 775 774 780 782 784 788
835 833 830 828 825 822 819 816 811 807 802 797 792 787 780 771 766 760 754 747 742 738 735 734 733 734 734 738 742 747 753 758 762 764 769 772 776 775 777 781 784 784 788
835 832 829 826 823 819 815 812 807 801 795 789 786 780 776 763 757 751 747 740 735 731 730 732 733 735 736 740 743 748 751 755 760 764 767 770 776 776 780 784 786 786 789
832 828 823 822 818 814 811 808 804 799 791 785 780 774 767 759 750 742 737 731 731 730 728 733 736 738 740 742 746 747 751 753 758 762 765 769 772 775 782 785 787 788 790
Wind_Speed
3 3 2 1 1 1 2 3 3 4 4 4 4 3 3 3 3 4 4 7 6 4 3 3 4 5 4 5 6 6 8 9 10 10 11 11 11 12 13 13 13 13 13
4 4 2 2 1 0 2 3 4 4 5 5 5 5 6 6 6 6 5 5 5 5 4 5 5 4 3 3 4 5 7 9 10 10 12 12 13 13 14 14 14 14 15
4 4 4 4 3 2 3 3 4 5 6 6 6 6 6 6 6 6 6 5 5 7 7 6 6 5 4 3 3 5 7 8 10 10 11 12 13 14 14 14 14 14 14
4 3 4 4 4 4 4 4 5 6 6 6 7 8 8 8 8 8 8 7 7 7 8 8 7 5 4 3 4 5 6 8 9 11 11 12 14 14 14 14 15 15 15
4 3 3 3 4 4 5 5 5 5 7 7 8 8 9 9 10 10 10 10 9 9 7 9 7 6 5 5 5 6 6 8 10 11 12 13 14 13 12 13 15 16 16
6 4 3 3 4 4 5 5 5 6 7 8 10 11 11 11 11 11 11 11 10 9 9 8 7 6 7 7 7 8 7 8 9 11 11 13 14 14 16 17 18 18 16
7 5 3 3 4 5 6 6 6 6 7 6 9 8 9 10 10 10 10 10 11 11 10 10 9 8 7 9 10 10 9 8 9 10 11 12 13 14 15 18 18 16 12
6 5 4 4 5 5 6 6 6 7 7 5 5 8 4 4 4 8 9 10 11 11 12 12 11 10 9 9 10 12 12 10 10 11 12 12 12 14 11 13 11 9 3
5 5 6 5 6 7 7 7 7 7 8 7 6 5 3 3 8 5 7 9 10 12 12 13 13 12 12 11 13 13 13 13 12 11 12 12 12 13 8 7 6 6 4
1 4 5 7 9 8 9 8 8 9 9 11 8 10 11 9 4 7 4 6 10 13 14 14 14 14 14 13 14 16 17 15 13 12 12 13 12 12 7 2 4 7 7
2 1 3 6 10 10 9 10 10 10 10 12 12 12 10 12 13 11 10 13 9 12 13 14 16 15 14 14 14 15 17 16 14 13 12 13 13 14 12 10 6 2 1
2 4 8 8 11 11 11 12 13 14 14 14 14 14 15 12 11 12 10 18 18 19 18 17 17 17 16 14 16 18 19 17 16 14 12 13 13 14 12 10 6 3 3
6 9 10 11 10 11 14 17 18 19 18 16 17 17 17 19 19 19 19 20 17 22 18 18 19 18 17 16 15 19 19 18 16 15 13 13 13 10 6 6 8 5 2
8 9 10 10 11 11 11 12 12 13 14 15 18 18 20 21 22 23 22 18 11 18 21 21 15 16 16 15 15 18 16 17 17 16 16 14 13 14 11 9 8 4 4
9 9 10 10 11 11 12 12 12 14 14 16 17 18 19 21 21 22 23 23 20 10 12 20 19 16 16 15 16 15 14 16 17 15 16 15 14 14 14 12 11 9 5
9 9 10 11 12 12 12 13 12 13 15 16 17 18 19 20 20 21 23 26 26 25 12 24 23 20 20 18 17 15 14 17 16 14 16 15 14 16 16 14 14 11 7
10 10 11 12 12 14 14 14 15 16 17 18 19 20 21 22 23 23 25 27 27 26 20 30 28 25 26 23 19 18 15 16 14 16 15 14 13 16 17 17 17 14 9
9 11 12 12 13 15 15 16 17 17 18 20 22 24 25 25 25 24 23 25 26 27 27 27 28 25 32 29 24 21 20 18 14 15 13 12 12 11 16 19 22 18 12
10 11 11 12 13 14 14 14 14 17 18 19 20 22 24 25 27 26 28 29 28 29 30 30 30 25 29 29 26 23 21 19 18 19 14 13 13 13 16 19 28 18 13
9 10 11 12 13 14 13 14 17 18 19 20 22 23 25 26 28 28 29 31 31 31 29 28 28 20 20 23 26 22 19 19 16 17 13 14 15 13 13 20 23 20 14
12 13 14 14 14 14 13 20 20 21 22 24 25 25 26 27 31 33 35 34 32 31 29 26 25 24 19 16 23 17 17 19 23 15 12 8 12 10 13 14 20 19 16
14 14 15 15 17 16 19 21 21 22 24 26 28 29 30 31 30 32 33 36 38 37 34 28 25 22 26 21 19 17 14 9 3 11 8 7 9 13 15 18 20 15 16
15 15 15 15 16 17 20 23 23 23 25 26 27 29 32 31 33 35 36 36 36 40 37 39 32 27 16 17 18 18 13 12 8 7 9 4 8 14 18 18 20 19 15
15 15 16 16 18 19 22 25 26 25 26 27 28 30 33 38 36 35 36 36 34 30 31 32 27 20 16 16 18 17 15 13 8 10 11 4 12 15 21 18 16 17 15
15 15 16 17 18 20 22 23 24 25 28 30 32 32 34 38 40 37 38 34 27 13 8 3 3 8 9 11 14 16 16 16 4 6 13 8 11 15 16 16 13 14 14
15 16 17 16 18 19 20 22 23 25 30 31 35 33 33 35 38 42 37 28 12 15 15 15 14 12 11 10 9 10 13 13 7 4 14 11 22 13 5 12 14 14 13
Wind_Direction
149 149 139 108 106 26 0 353 356 346 332 326 316 297 287 280 277 269 266 281 285 284 301 340 353 358 10 10 6 10 7 1 355 350 346 338 330 326 321 318 314 307 301
186 189 190 201 186 284 330 329 325 322 313 304 289 282 275 275 271 269 268 278 269 261 274 300 319 325 334 338 340 348 351 348 347 345 344 336 330 320 321 319 314 309 307
203 207 221 228 228 252 295 306 309 312 306 299 291 285 280 275 275 272 267 253 261 262 263 276 289 289 293 311 322 331 337 340 343 342 341 339 331 323 313 313 314 310 306
202 224 245 252 240 256 279 294 302 305 301 296 292 286 279 273 267 263 259 256 254 247 263 263 274 280 286 298 313 323 329 333 335 334 331 333 337 332 319 313 306 304 302
216 236 249 243 254 262 279 290 302 309 308 304 297 288 277 268 265 260 256 254 252 248 248 261 263 271 281 285 298 317 329 332 328 326 328 328 331 336 339 331 319 306 294
231 234 259 263 269 273 278 288 295 300 299 303 302 292 278 267 260 257 256 253 250 245 244 242 253 263 278 280 289 296 305 319 321 323 323 325 329 324 321 321 317 308 298
220 232 246 265 279 280 283 281 286 293 299 303 309 306 288 269 255 254 253 248 245 243 242 243 247 257 273 282 284 284 288 298 313 321 320 319 319 322 326 325 323 314 295
230 246 265 277 284 286 285 282 282 293 298 301 307 306 310 277 270 252 249 247 245 243 244 245 248 254 261 266 266 276 283 287 302 318 319 313 310 316 325 336 354 7 360
251 267 279 289 293 292 285 280 274 269 284 283 259 268 288 283 326 241 255 251 249 247 250 251 250 254 259 264 269 275 277 279 289 303 310 308 303 303 308 339 354 21 15
298 289 292 303 309 292 286 283 274 270 264 275 277 256 255 272 295 299 249 264 257 252 251 251 253 252 254 260 261 260 262 272 280 293 301 301 292 298 266 133 71 59 60
189 275 308 323 310 300 292 288 284 279 274 271 272 273 267 261 257 256 282 280 268 266 257 252 250 250 251 256 260 258 264 266 273 283 293 295 287 287 266 246 269 267 350
60 3 347 323 306 307 301 299 296 291 278 270 267 264 260 259 269 254 259 273 276 278 269 262 253 252 254 257 259 258 263 264 267 277 283 283 280 279 265 244 235 259 293
21 356 338 329 324 312 302 295 292 291 287 273 268 263 257 253 255 259 262 270 274 273 272 263 254 247 243 251 250 258 259 257 261 269 278 281 281 257 247 255 244 234 182
27 6 0 354 347 339 327 315 304 296 288 281 276 269 266 261 252 244 242 257 269 267 259 263 263 245 236 241 238 251 249 252 255 262 270 273 265 247 248 232 231 200 203
29 16 9 1 354 348 342 332 318 310 301 293 286 281 274 270 267 260 255 252 251 266 265 263 251 246 238 233 237 246 240 245 250 258 267 268 255 238 238 234 215 217 225
32 18 8 2 353 348 342 334 324 315 308 300 295 290 285 281 276 268 261 254 246 247 263 257 254 233 229 228 239 239 235 244 247 253 261 262 254 240 245 240 223 217 218
25 13 3 355 348 342 340 334 326 319 312 304 297 293 289 288 280 271 264 259 251 241 249 262 251 242 231 227 232 231 230 241 242 244 242 250 250 245 241 235 231 215 214
16 6 358 352 346 341 337 334 328 324 319 315 311 305 301 299 292 285 274 264 256 252 245 259 257 229 228 230 229 227 227 231 239 231 230 244 253 252 248 238 222 213 206
9 360 354 347 341 336 332 332 326 318 314 309 305 300 296 294 290 289 286 275 265 259 252 250 259 239 223 228 223 225 221 226 239 235 235 254 268 260 257 239 212 197 202
355 352 347 340 335 331 330 330 327 320 313 309 305 301 297 293 290 289 285 281 280 266 259 250 251 233 209 221 226 212 217 215 221 227 233 256 264 260 272 205 183 185 192
355 349 345 339 335 331 328 331 328 322 317 313 309 304 300 295 291 288 287 282 277 272 259 251 243 235 219 193 202 202 213 223 224 223 239 249 267 240 224 186 202 194 184
353 350 345 339 333 329 323 329 327 322 318 314 312 308 305 304 301 297 294 290 283 273 271 255 247 234 222 199 187 203 211 171 176 222 222 240 243 220 201 189 177 163 149
348 343 338 333 328 322 321 324 321 318 313 310 307 305 301 298 296 297 293 288 285 275 279 260 255 234 201 187 188 188 193 202 192 189 181 173 189 170 173 162 150 146 146
339 334 330 327 322 320 321 322 320 316 310 312 313 308 303 300 295 294 289 287 284 271 284 268 244 202 197 208 201 196 202 192 184 188 190 128 152 119 138 140 144 134 127
330 328 326 322 319 315 316 321 322 318 313 313 314 311 306 296 296 296 289 290 284 248 183 169 151 156 166 185 192 191 177 160 132 175 188 153 160 124 127 133 138 132 124
320 322 320 316 312 311 315 320 324 320 315 312 311 307 309 301 299 297 289 279 203 130 136 132 138 151 163 170 190 188 191 172 143 153 196 164 156 140 113 135 141 136 123